[[{"header":{"parameterUnit":"m.s-1","parameterCategory":1,"la1":30.2991,"la2":30.254,"lo1":-89.0895,"lo2":-89.0444,"dy":0.0017,"dx":0.0017,"nx":28,"ny":28,"refTime":"2024-06-18T09:00:00:Z","depth":0,"parameterNumber":2,"parameterNumberName":"U-component_of_WINDS"},"data":[0,0,0,0,0,0,0,0,0,0,0,0,0,0,0,0,0,0,0,0,0,0,0,0,0,0,0,0,0,0,0,0,0,0,0,0,0,0,0,0,0,0,0,0,0,0,0,0,0,0,0,0,0,0,0,0,0,0,-9.5287,-9.5288,0,-9.5368,-9.5369,-9.5369,-9.5187,-9.5181,-9.5175,-9.517,-9.5252,-9.5259,-9.5267,0,0,0,0,0,0,0,0,0,0,0,0,0,-9.4976,-9.4982,-9.5287,-9.5288,-9.5289,-9.5367,-9.5369,-9.537,-9.5188,-9.5181,-9.5174,-9.5167,-9.5249,-9.5258,-9.5268,0,0,0,0,0,0,0,0,0,0,0,0,0,-9.5089,-9.4985,-9.5287,-9.5208,-9.5202,-9.5367,-9.5369,-9.537,-9.519,-9.5181,-9.5172,-9.5164,-9.5246,-9.5258,-9.5269,-9.5515,0,0,-9.5304,-9.5309,0,0,0,0,0,0,0,0,-9.5083,-9.5101,-9.5218,-9.5214,-9.5207,-9.5258,-9.5289,-9.5418,-9.5192,-9.5194,-9.517,-9.516,-9.5261,-9.5271,-9.5305,-9.5518,-9.5522,-9.5305,-9.5312,-9.5317,-9.532,0,0,0,0,0,0,0,-9.5075,-9.5096,-9.5319,-9.522,-9.5213,-9.5168,-9.5175,-9.5312,-9.5276,-9.5193,-9.518,-9.5192,-9.5256,-9.5295,-9.5306,-9.5523,-9.5304,-9.5315,-9.5322,-9.5326,-9.5943,-9.5952,0,0,0,0,0,0,-9.5078,-9.5091,-9.5316,-9.5321,-9.5122,-9.5181,-9.5188,-9.5251,-9.5274,-9.5269,-9.52,-9.5184,-9.5279,-9.5293,-9.5308,-9.5598,-9.5316,-9.5327,-9.5334,-9.5934,-9.5945,-9.5956,0,0,0,0,0,0,-9.5072,-9.5099,-9.5313,-9.5203,-9.5226,-9.5196,-9.5267,-9.5257,-9.5295,-9.5279,-9.5271,-9.5246,-9.5273,-9.5292,-9.5465,-9.5598,-9.5332,-9.5343,-9.5923,-9.5937,-9.5951,-9.618,0,0,0,0,0,0,-9.5063,-9.5098,-9.5191,-9.5206,-9.5233,-9.5469,-9.5275,-9.5265,-9.5315,-9.5295,-9.532,-9.5315,-9.5267,-9.5449,-9.5476,-9.5609,-9.5352,-9.5911,-9.5929,-9.5946,-9.616,-9.62,-9.6234,0,0,0,0,0,-9.5053,-9.5252,-9.5197,-9.5225,-9.5349,-9.5477,-9.5493,-9.5434,-9.5327,-9.542,-9.541,-9.5315,-9.5579,-9.5468,-9.5497,-9.5636,-9.5902,-9.5924,-9.5945,-9.6143,-9.6192,-9.6233,0,0,0,0,0,0,-9.5253,-9.5253,-9.5191,-9.5401,-9.5441,-9.5446,-9.5562,-9.5487,-9.5557,-9.5535,-9.5459,-9.5466,-9.5654,-9.5662,-9.5538,-9.5875,-9.5722,-9.5751,-9.5863,-9.591,-9.5946,-9.594,-9.5361,0,0,0,0,0,-9.5322,-9.5427,-9.542,-9.5606,-9.5629,-9.5593,-9.5647,-9.5598,-9.5636,-9.5651,-9.5653,-9.5694,-9.5786,-9.5848,-9.5932,-9.616,-9.6164,-9.627,-9.6307,-9.6338,-9.6363,-9.6486,-9.6533,-9.6026,-9.6026,-9.6026,0,0,-9.5464,-9.5477,-9.5548,-9.5647,-9.5671,-9.5782,-9.5608,-9.5732,-9.5813,-9.567,-9.5834,-9.5837,-9.5877,-9.608,-9.6169,-9.6092,-9.6504,-9.6365,-9.639,-9.6398,-9.6513,-9.6561,-9.6604,-9.6041,-9.6038,-9.6036,0,0,-9.5781,-9.5801,-9.5958,-9.5987,-9.6028,-9.6002,-9.6041,-9.6058,-9.6055,-9.6219,-9.6114,-9.621,-9.637,-9.6403,-9.6441,-9.6772,-9.6688,-9.6802,-9.6995,-9.7116,-9.7156,-9.7191,-9.731,-9.7353,-9.6827,-9.6828,-9.6828,0,-9.5953,-9.6115,-9.6049,-9.618,-9.6227,-9.6104,-9.6263,-9.6294,-9.636,-9.6396,-9.6309,-9.6508,-9.6526,-9.6735,-9.6816,-9.6851,-9.6892,-9.6798,-9.7155,-9.719,-9.7222,-9.7334,-9.7379,-9.6841,-9.684,-9.6838,-9.6837,0,-9.6325,-9.6439,-9.6562,-9.6629,-9.669,-9.6835,-9.6791,-9.6861,-9.6807,-9.6792,-9.6961,-9.6978,-9.7064,-9.711,-9.7059,-9.7313,-9.7264,-9.7168,-9.7012,-9.7285,-9.7389,-9.7432,-9.6861,-9.6856,-9.6852,-9.6848,0,0,-9.6768,-9.6799,-9.6845,-9.6875,-9.6911,-9.6998,-9.7138,-9.7222,-9.7284,-9.7334,-9.745,-9.7589,-9.7501,-9.7544,-9.7496,-9.7602,-9.7864,-9.7492,-9.7492,-9.7561,-9.8146,-9.8219,-9.827,-9.7809,-9.7817,-9.7823,-9.8143,0,-9.7081,-9.7322,-9.7267,-9.7505,-9.761,-9.7495,-9.7617,-9.7653,-9.7643,-9.7731,-9.7718,-9.7819,-9.7694,-9.772,-9.782,-9.7811,-9.7981,-9.7787,-9.7916,-9.7921,-9.791,-9.8324,-9.84,-9.8702,-9.8184,-9.819,-9.8195,0,-9.7478,-9.7545,-9.7793,-9.7814,-9.7856,-9.7967,-9.8041,-9.8126,-9.8165,-9.815,-9.82,-9.8131,-9.827,-9.8115,-9.8305,-9.8175,-9.8224,-9.8229,-9.8239,-9.8248,-9.8075,-9.8345,-9.8796,-9.8842,-9.8259,-9.8254,-9.8249,0,-9.7778,-9.7929,-9.8097,-9.8126,-9.8155,-9.8235,-9.8251,-9.8281,-9.8336,-9.8401,-9.8436,-9.8516,-9.856,-9.8624,-9.8579,-9.847,-9.8778,-9.8618,-9.877,-9.8772,-9.884,-9.8836,-9.9306,-9.8872,-9.8872,-9.8871,-9.887,0,-9.8133,-9.829,-9.8232,-9.8336,-9.8508,-9.8445,-9.8617,-9.8619,-9.8647,-9.875,-9.8655,-9.8753,-9.8688,-9.8782,-9.8748,-9.8911,-9.8932,-9.8924,-9.8913,-9.8933,-9.8934,-9.8964,-9.8942,-9.8883,-9.888,-9.8878,-9.8876,0,-9.8496,-9.8464,-9.864,-9.8653,-9.866,-9.8787,-9.8798,-9.8894,-9.8878,-9.9008,-9.9035,-9.901,-9.9114,-9.9076,-9.9188,-9.9165,-9.9374,-9.9336,-9.9362,-9.9352,-9.9506,-9.9493,-10.0011,-10.0076,-9.9602,-9.9606,-9.961,0,-9.8725,-9.8843,-9.8869,-9.8931,-9.8954,-9.9055,-9.9111,-9.9053,-9.9115,-9.917,-9.926,-9.9357,-9.9431,-9.9604,-9.9595,-9.968,-9.9644,-9.982,-9.9656,-9.9672,-9.9647,-9.964,-9.9652,-9.9852,-9.9858,-9.9862,-9.9866,0,-9.9135,-9.9114,-9.9198,-9.9278,-9.9348,-9.9408,-9.9459,-9.9516,-9.9461,-9.9536,-9.9642,-9.97,-9.9815,-9.9912,-9.9989,-10.0005,-9.9928,-9.9918,-9.9957,-9.9978,-9.9989,-9.9986,-9.9451,-9.9906,-9.9902,-9.9899,-9.9897,-9.9895,-9.9437,-9.9537,-9.9572,-9.967,-9.9703,-9.9754,-9.9846,-9.9841,-9.9929,-10.0018,-9.9979,-10.0103,-10.0139,-10.0235,-10.0262,-10.0358,-10.0289,-10.0347,-10.0361,-10.0377,-10.0397,-9.9974,-10.0372,-10.037,-10.0369,-10.0368,-10.0367,0,-9.9842,-9.986,-9.995,-10.0026,-10.0104,-10.0025,-10.0078,-10.0148,-10.0258,-10.0299,-10.0375,-10.0498,-10.0592,-10.0592,-10.068,-10.0757,-10.0724,-10.0782,-10.0776,-10.0781,-10.0452,-10.0409,-10.0808,-10.0808,-10.0808,-10.0808,-10.0807,-10.0807,-10.0062,-10.0228,-10.0211,-10.0393,-10.0408,-10.0529,-10.0566,-10.0613,-10.0646,-10.0788,-10.0866,-10.0865,-10.0891,-10.098,-10.1064,-10.1061,-10.1098,-10.117,-10.1155,-10.0848,-10.0804,-10.0762,-10.0721,-10.1179,-10.1179,-10.1475,-10.1477,-10.148]},{"header":{"parameterUnit":"m.s-1","parameterCategory":1,"la1":30.2991,"la2":30.254,"lo1":-89.0895,"lo2":-89.0444,"dy":0.0017,"dx":0.0017,"nx":28,"ny":28,"refTime":"2024-06-18T09:00:00:Z","depth":0,"parameterNumber":3,"parameterNumberName":"V-component_of_WINDS"},"data":[0,0,0,0,0,0,0,0,0,0,0,0,0,0,0,0,0,0,0,0,0,0,0,0,0,0,0,0,0,0,0,0,0,0,0,0,0,0,0,0,0,0,0,0,0,0,0,0,0,0,0,0,0,0,0,0,0,0,-1.8187,-1.8187,0,-1.8117,-1.8116,-1.8115,-1.8028,-1.8027,-1.8026,-1.8024,-1.7953,-1.7952,-1.7952,0,0,0,0,0,0,0,0,0,0,0,0,0,-1.8247,-1.8246,-1.8188,-1.8187,-1.8186,-1.8117,-1.8116,-1.8115,-1.8029,-1.8027,-1.8025,-1.8024,-1.7953,-1.7952,-1.7952,0,0,0,0,0,0,0,0,0,0,0,0,0,-1.8203,-1.8246,-1.8188,-1.8134,-1.8129,-1.8117,-1.8116,-1.8115,-1.8029,-1.8027,-1.8025,-1.8023,-1.7953,-1.7953,-1.7952,-1.7987,0,0,-1.7949,-1.7948,0,0,0,0,0,0,0,0,-1.8206,-1.8201,-1.8143,-1.8138,-1.8132,-1.8079,-1.8111,-1.8072,-1.8029,-1.8067,-1.8024,-1.8022,-1.7997,-1.7992,-1.7983,-1.7984,-1.7981,-1.7949,-1.7948,-1.7948,-1.7948,0,0,0,0,0,0,0,-1.8209,-1.8204,-1.816,-1.8142,-1.8135,-1.8114,-1.8105,-1.8103,-1.8044,-1.8063,-1.8057,-1.805,-1.7993,-1.7985,-1.7981,-1.798,-1.7949,-1.7948,-1.7947,-1.7947,-1.8003,-1.8005,0,0,0,0,0,0,-1.822,-1.8207,-1.8162,-1.8157,-1.8164,-1.8114,-1.8105,-1.8098,-1.8044,-1.8034,-1.8052,-1.8046,-1.7987,-1.7982,-1.7978,-1.8015,-1.7948,-1.7947,-1.7946,-1.8001,-1.8004,-1.8006,0,0,0,0,0,0,-1.8221,-1.8217,-1.8165,-1.818,-1.8172,-1.8115,-1.8109,-1.8098,-1.8089,-1.8035,-1.8024,-1.8054,-1.7985,-1.798,-1.7985,-1.8011,-1.7947,-1.7946,-1.7999,-1.8002,-1.8005,-1.809,0,0,0,0,0,0,-1.8223,-1.8218,-1.8231,-1.8181,-1.8171,-1.8173,-1.811,-1.8098,-1.8088,-1.808,-1.8034,-1.8024,-1.7983,-1.7987,-1.7984,-1.8009,-1.7945,-1.7996,-1.8,-1.8004,-1.8084,-1.8095,-1.8105,0,0,0,0,0,-1.8226,-1.8258,-1.8232,-1.8227,-1.8187,-1.8175,-1.8169,-1.8121,-1.809,-1.8103,-1.8067,-1.8026,-1.8009,-1.7988,-1.7984,-1.8009,-1.7994,-1.7999,-1.8004,-1.808,-1.8093,-1.8104,0,0,0,0,0,0,-1.8314,-1.8251,-1.8221,-1.8238,-1.8213,-1.816,-1.8175,-1.8137,-1.812,-1.8113,-1.8054,-1.8044,-1.8057,-1.8033,-1.8011,-1.804,-1.7995,-1.7999,-1.8055,-1.8067,-1.8077,-1.8082,-1.7944,0,0,0,0,0,-1.8335,-1.833,-1.8276,-1.8296,-1.8285,-1.8232,-1.8225,-1.819,-1.8161,-1.815,-1.8115,-1.8088,-1.8077,-1.807,-1.8057,-1.808,-1.8068,-1.8095,-1.8105,-1.8114,-1.8118,-1.8127,-1.8138,-1.8021,-1.8021,-1.8021,0,0,-1.8379,-1.8344,-1.8345,-1.8313,-1.8289,-1.8285,-1.8224,-1.8223,-1.8219,-1.8149,-1.8152,-1.8126,-1.8092,-1.8106,-1.8111,-1.8087,-1.8148,-1.812,-1.8127,-1.8127,-1.8133,-1.8144,-1.8154,-1.8024,-1.8024,-1.8023,0,0,-1.8457,-1.8431,-1.8444,-1.842,-1.8384,-1.8349,-1.8352,-1.8305,-1.8284,-1.8286,-1.8233,-1.8228,-1.821,-1.8187,-1.8173,-1.8241,-1.8201,-1.8238,-1.8292,-1.8301,-1.831,-1.8318,-1.8341,-1.835,-1.8243,-1.8243,-1.8243,0,-1.8516,-1.8509,-1.8456,-1.8457,-1.8444,-1.838,-1.8393,-1.8373,-1.8334,-1.8327,-1.8301,-1.8275,-1.8248,-1.8255,-1.8271,-1.8263,-1.8264,-1.8243,-1.8313,-1.832,-1.8327,-1.8348,-1.8357,-1.8247,-1.8247,-1.8246,-1.8246,0,-1.8583,-1.8578,-1.8593,-1.8557,-1.8545,-1.8553,-1.85,-1.8495,-1.8461,-1.8428,-1.8429,-1.8394,-1.8371,-1.837,-1.8337,-1.8372,-1.8359,-1.8324,-1.8278,-1.8344,-1.8362,-1.837,-1.8254,-1.8252,-1.8251,-1.825,0,0,-1.8715,-1.8648,-1.8654,-1.8636,-1.8591,-1.8586,-1.859,-1.8567,-1.8563,-1.8538,-1.8539,-1.8524,-1.8491,-1.8475,-1.8439,-1.8447,-1.8501,-1.841,-1.8409,-1.8428,-1.8536,-1.8562,-1.8573,-1.8474,-1.8476,-1.8477,-1.8538,0,-1.8784,-1.8787,-1.8739,-1.8754,-1.8749,-1.8687,-1.869,-1.8662,-1.8631,-1.8621,-1.8587,-1.8577,-1.8534,-1.8524,-1.853,-1.8494,-1.8522,-1.8488,-1.8474,-1.8474,-1.8484,-1.8583,-1.8611,-1.8671,-1.8546,-1.8547,-1.8548,0,-1.8865,-1.8844,-1.8859,-1.8812,-1.8807,-1.8811,-1.8785,-1.8777,-1.8744,-1.872,-1.8702,-1.866,-1.8659,-1.8616,-1.8614,-1.8592,-1.8583,-1.8564,-1.8565,-1.8562,-1.8515,-1.8581,-1.8689,-1.8698,-1.8559,-1.8558,-1.8557,0,-1.8959,-1.8934,-1.894,-1.8926,-1.8871,-1.8875,-1.8852,-1.8816,-1.8805,-1.8783,-1.8775,-1.8753,-1.8741,-1.8724,-1.8677,-1.865,-1.8679,-1.8632,-1.8659,-1.8661,-1.8668,-1.8669,-1.8776,-1.8664,-1.8664,-1.8664,-1.8663,0,-1.9041,-1.9052,-1.8981,-1.8984,-1.8995,-1.8939,-1.8951,-1.8922,-1.889,-1.8886,-1.8832,-1.8829,-1.8767,-1.8757,-1.8719,-1.8722,-1.8718,-1.8698,-1.8688,-1.8703,-1.8705,-1.8696,-1.869,-1.8666,-1.8665,-1.8665,-1.8665,0,-1.9147,-1.91,-1.9102,-1.9049,-1.9036,-1.9046,-1.9,-1.9,-1.8965,-1.8961,-1.8957,-1.8902,-1.8887,-1.8838,-1.8811,-1.8786,-1.88,-1.8781,-1.8812,-1.8805,-1.8834,-1.8832,-1.8939,-1.8949,-1.8832,-1.8833,-1.8834,0,-1.9203,-1.921,-1.9157,-1.9151,-1.913,-1.912,-1.9108,-1.9053,-1.9042,-1.9004,-1.9009,-1.899,-1.8971,-1.895,-1.8908,-1.8887,-1.8866,-1.8905,-1.8863,-1.8877,-1.8866,-1.8866,-1.8865,-1.8914,-1.8916,-1.8917,-1.8918,0,-1.9305,-1.9281,-1.9266,-1.9242,-1.9229,-1.9208,-1.9184,-1.9181,-1.9119,-1.911,-1.9094,-1.908,-1.9052,-1.9033,-1.9005,-1.898,-1.8939,-1.8932,-1.8937,-1.8952,-1.8969,-1.8959,-1.8836,-1.893,-1.8929,-1.8928,-1.8927,-1.8927,-1.9387,-1.939,-1.9353,-1.9337,-1.9313,-1.9291,-1.9288,-1.9253,-1.9238,-1.9211,-1.9179,-1.9167,-1.9131,-1.9089,-1.9067,-1.9056,-1.9034,-1.9041,-1.9043,-1.9045,-1.9052,-1.8971,-1.9051,-1.905,-1.905,-1.905,-1.9049,0,-1.9486,-1.9459,-1.9445,-1.9412,-1.94,-1.9361,-1.9332,-1.9324,-1.9313,-1.9284,-1.9267,-1.9247,-1.9228,-1.9184,-1.9161,-1.916,-1.914,-1.9156,-1.9155,-1.915,-1.9074,-1.9072,-1.9172,-1.9172,-1.9172,-1.9172,-1.9172,-1.9172,-1.9535,-1.9538,-1.9509,-1.9499,-1.9471,-1.9459,-1.9445,-1.9424,-1.94,-1.9381,-1.9365,-1.9336,-1.93,-1.9273,-1.9253,-1.924,-1.9234,-1.9256,-1.9237,-1.9167,-1.9155,-1.9144,-1.9142,-1.9255,-1.9255,-1.9313,-1.9314,-1.9314]}]]